#timestamp,LO_Frequency,Hit,Temp,Hum 
1493924415.7,286047069.5,N,0.0,0.0
1493924435.5,286047075.3,N,0.0,0.0
1493924455.3,286047100.8,N,0.0,0.0
1493924475.2,286047074.4,N,0.0,0.0
1493924495.0,286047071.8,N,0.0,0.0
1493924495.9,286047071.8,N,0.0,0.0
1493924515.7,286047083.6,N,0.0,0.0
1493924535.6,286047072.3,N,0.0,0.0
1493924555.4,286047077.2,N,0.0,0.0
1493924575.2,286047077.5,N,0.0,0.0
1493924595.1,286047080.1,N,0.0,0.0
1493924596.0,286047080.1,N,0.0,0.0
1493924615.8,286047080.5,N,0.0,0.0
1493924635.6,286047080.8,N,0.0,0.0
1493924655.5,286047079.3,N,0.0,0.0
1493924675.3,286047081.0,N,0.0,0.0
1493924695.1,286047081.2,N,0.0,0.0
1493924715.9,286047077.9,N,0.0,0.0
1493924735.7,286047075.2,N,0.0,0.0
1493924755.5,286047084.4,N,0.0,0.0
1493924775.4,286047077.8,N,0.0,0.0
1493924795.2,286047077.8,N,0.0,0.0
1493924815.0,286047077.5,N,0.0,0.0
1493924815.9,286047077.5,N,0.0,0.0
1493924835.8,286047075.5,N,0.0,0.0
1493924855.6,286047080.6,N,0.0,0.0
1493924875.4,286047075.1,N,0.0,0.0
1493924895.3,286047077.7,N,0.0,0.0
1493924915.1,286047080.5,N,0.0,0.0
1493924916.0,286047080.5,N,0.0,0.0
1493924935.8,286047072.9,N,0.0,0.0
1493924955.7,286047080.5,N,0.0,0.0
1493924975.5,286047084.7,N,0.0,0.0
1493924995.3,286047075.7,N,0.0,0.0
1493925015.1,286047081.0,N,0.0,0.0
1493925035.9,286047077.7,N,0.0,0.0
1493925055.7,286047079.1,N,0.0,0.0
1493925075.5,286047077.6,N,0.0,0.0
1493925095.4,286047078.4,N,0.0,0.0
1493925115.2,286047079.5,N,0.0,0.0
1493925135.0,286047078.2,N,0.0,0.0
1493925135.9,286047078.2,N,0.0,0.0
1493925155.8,286047078.4,N,0.0,0.0
1493925175.6,286047080.2,N,0.0,0.0
1493925195.4,286047078.9,N,0.0,0.0
1493925215.3,286047083.8,N,0.0,0.0
1493925235.1,286047080.1,N,0.0,0.0
1493925255.8,286047079.6,N,0.0,0.0
1493925275.7,286047078.7,N,0.0,0.0
1493925295.5,286047080.2,N,0.0,0.0
1493925315.3,286047081.0,N,0.0,0.0
1493925335.2,286047079.1,N,0.0,0.0
1493925355.9,286047079.4,N,0.0,0.0
1493925375.7,286047082.8,N,0.0,0.0
1493925395.6,286047082.8,N,0.0,0.0
1493925415.4,286047076.6,N,0.0,0.0
1493925435.2,286047077.2,N,0.0,0.0
1493925455.0,286047078.8,N,0.0,0.0
1493925456.0,286047078.8,N,0.0,0.0
1493925475.8,286047082.1,N,0.0,0.0
1493925495.6,286047068.3,N,0.0,0.0
1493925515.4,286047088.4,N,0.0,0.0
1493925535.3,286047081.8,N,0.0,0.0
1493925555.1,286047068.1,N,0.0,0.0
1493925575.8,286047083.6,N,0.0,0.0
1493925595.7,286047083.8,N,0.0,0.0
1493925615.5,286047082.3,N,0.0,0.0
1493925635.3,286047080.1,N,0.0,0.0
1493925655.2,286047078.7,N,0.0,0.0
1493925675.9,286047078.3,N,0.0,0.0
1493925695.7,286047083.3,N,0.0,0.0
1493925715.6,286047079.1,N,0.0,0.0
1493925735.4,286047084.7,N,0.0,0.0
1493925755.2,286047081.5,N,0.0,0.0
1493925775.1,286047077.6,N,0.0,0.0
1493925776.0,286047077.6,N,0.0,0.0
1493925795.8,286047080.8,N,0.0,0.0
1493925815.6,286047079.2,N,0.0,0.0
1493925835.5,286047076.3,N,0.0,0.0
1493925855.3,286047079.0,N,0.0,0.0
1493925875.1,286047078.4,N,0.0,0.0
1493925895.9,286047080.3,N,0.0,0.0
1493925915.7,286047078.3,N,0.0,0.0
1493925935.5,286047083.6,N,0.0,0.0
1493925955.3,286047082.2,N,0.0,0.0
1493925975.2,286047081.7,N,0.0,0.0
1493925995.0,286047082.9,N,0.0,0.0
1493925995.9,286047082.9,N,0.0,0.0
1493926015.7,286047084.8,N,0.0,0.0
1493926035.6,286047085.6,N,0.0,0.0
1493926055.4,286047076.3,N,0.0,0.0
1493926075.2,286047073.1,N,0.0,0.0
1493926095.1,286047073.0,N,0.0,0.0
1493926096.0,286047073.0,N,0.0,0.0
1493926115.8,286047071.3,N,0.0,0.0
1493926135.6,286047071.5,N,0.0,0.0
1493926155.5,286047079.5,N,0.0,0.0
1493926175.3,286047076.8,N,0.0,0.0
1493926195.1,286047055.3,N,0.0,0.0
1493926215.9,286047078.7,N,0.0,0.0
1493926235.7,286047082.4,N,0.0,0.0
1493926255.5,286047081.9,N,0.0,0.0
1493926275.4,286047077.2,N,0.0,0.0
1493926295.2,286047076.5,N,0.0,0.0
1493926315.0,286047081.5,N,0.0,0.0
1493926315.9,286047081.5,N,0.0,0.0
1493926335.8,286047081.8,N,0.0,0.0
1493926355.6,286047086.0,N,0.0,0.0
1493926375.4,286047087.4,N,0.0,0.0
1493926395.3,286047085.8,N,0.0,0.0
1493926415.1,286047083.3,N,0.0,0.0
1493926416.0,286047083.3,N,0.0,0.0
1493926435.8,286047084.6,N,0.0,0.0
1493926455.7,286047085.2,N,0.0,0.0
1493926475.5,286047082.9,N,0.0,0.0
1493926495.3,286047085.9,N,0.0,0.0
1493926515.2,286047081.3,N,0.0,0.0
1493926535.9,286047084.0,N,0.0,0.0
1493926555.7,286047080.3,N,0.0,0.0
1493926575.6,286047083.6,N,0.0,0.0
1493926595.4,286047085.7,N,0.0,0.0
1493926615.2,286047083.2,N,0.0,0.0
1493926635.0,286047082.7,N,0.0,0.0
1493926636.0,286047082.7,N,0.0,0.0
1493926655.8,286047084.0,N,0.0,0.0
1493926675.6,286047082.0,N,0.0,0.0
1493926695.4,286047082.8,N,0.0,0.0
1493926715.3,286047086.9,N,0.0,0.0
1493926735.1,286047083.0,N,0.0,0.0
1493926755.8,286047082.2,N,0.0,0.0
1493926775.7,286047081.4,N,0.0,0.0
1493926795.5,286047086.2,N,0.0,0.0
1493926815.3,286047088.6,N,0.0,0.0
1493926835.2,286047090.0,N,0.0,0.0
1493926855.9,286047090.0,N,0.0,0.0
1493926875.7,286047089.5,N,0.0,0.0
1493926895.6,286047089.7,N,0.0,0.0
1493926915.4,286047088.3,N,0.0,0.0
1493926935.2,286047088.5,N,0.0,0.0
1493926955.1,286047086.5,N,0.0,0.0
1493926956.0,286047086.5,N,0.0,0.0
1493926975.8,286047087.4,N,0.0,0.0
1493926995.6,286047083.7,N,0.0,0.0
1493927015.5,286047086.9,N,0.0,0.0
1493927035.3,286047087.4,N,0.0,0.0
1493927055.1,286047083.5,N,0.0,0.0
1493927075.9,286047083.4,N,0.0,0.0
1493927095.7,286047084.5,N,0.0,0.0
1493927115.5,286047085.2,N,0.0,0.0
1493927135.3,286047084.8,N,0.0,0.0
1493927155.2,286047085.8,N,0.0,0.0
1493927175.0,286047083.7,N,0.0,0.0
1493927175.9,286047083.7,N,0.0,0.0
1493927195.7,286047083.7,N,0.0,0.0
1493927215.6,286047086.5,N,0.0,0.0
1493927235.4,286047087.4,Y,0.0,0.0
1493927255.2,286047016.1,N,0.0,0.0
1493927275.1,286047020.2,N,0.0,0.0
1493927276.0,286047020.2,N,0.0,0.0
1493927295.8,286047017.4,N,0.0,0.0
1493927315.6,286047017.3,N,0.0,0.0
1493927335.5,286047014.7,N,0.0,0.0
1493927355.3,286047017.0,N,0.0,0.0
1493927375.1,286047014.5,N,0.0,0.0
1493927395.9,286047017.6,N,0.0,0.0
1493927415.7,286047015.7,N,0.0,0.0
1493927435.5,286047014.5,N,0.0,0.0
1493927455.6,286047016.9,N,0.0,0.0
1493927475.4,286047017.1,N,0.0,0.0
1493927495.2,286047016.8,N,0.0,0.0
1493927515.0,286047022.0,N,0.0,0.0
1493927516.0,286047022.0,N,0.0,0.0
1493927535.8,286047021.3,N,0.0,0.0
1493927555.6,286047022.8,N,0.0,0.0
1493927575.4,286047019.3,N,0.0,0.0
1493927595.3,286047018.9,N,0.0,0.0
1493927615.1,286047019.1,N,0.0,0.0
1493927635.8,286047018.6,N,0.0,0.0
1493927655.7,286047019.2,N,0.0,0.0
1493927675.5,286047019.9,N,0.0,0.0
1493927695.3,286047018.7,N,0.0,0.0
1493927715.2,286047018.6,N,0.0,0.0
1493927735.0,286047016.6,N,0.0,0.0
1493927735.9,286047016.6,N,0.0,0.0
1493927755.7,286047016.6,N,0.0,0.0
1493927775.6,286047018.8,N,0.0,0.0
1493927795.4,286047019.2,N,0.0,0.0
1493927815.2,286047017.3,N,0.0,0.0
1493927835.1,286047018.2,N,0.0,0.0
1493927836.0,286047018.2,N,0.0,0.0
1493927855.8,286047019.7,N,0.0,0.0
1493927875.6,286047020.6,N,0.0,0.0
1493927895.5,286047023.4,N,0.0,0.0
1493927915.3,286047023.1,N,0.0,0.0
1493927935.1,286047019.8,N,0.0,0.0
1493927955.9,286047019.4,N,0.0,0.0
1493927975.7,286047023.3,N,0.0,0.0
1493927995.5,286047022.5,N,0.0,0.0
